Location: Eaton Estates
(41.3089°N, 82.0057°W)
Time: 21:11:29
(UTC+00:00)

Cosmos 2154 Rocket - Visible Passes

Search period start: 24 January 2022 00:00
Search period end: 03 February 2022 00:00
Orbit: 966 x 996 km, 82.9° (Epoch: 24 January)

Date Brightness Start Highest point End Pass type
(mag) Time Alt. Az. Time Alt. Az. Time Alt. Az.
24 Jan 6.9 08:49:53 10° E 08:51:17 11° ENE 08:52:42 10° ENE visible
24 Jan 4.1 10:29:20 10° S 10:35:39 79° E 10:42:02 10° N visible
24 Jan 5.4 12:18:07 10° WSW 12:21:55 16° WNW 12:25:45 10° NNW visible
24 Jan 6.7 23:13:12 10° NW 23:17:17 18° W 23:21:22 10° WSW visible
25 Jan 6.2 09:13:13 10° SE 09:17:50 22° E 09:22:29 10° NE visible
25 Jan 4.0 10:56:36 10° SSW 11:02:48 57° W 11:09:04 10° N visible
26 Jan 5.2 09:38:46 10° SSE 09:44:35 40° E 09:50:27 10° NNE visible
26 Jan 4.7 11:24:36 10° SW 11:30:09 31° WNW 11:35:45 10° NNW visible
27 Jan 4.1 10:05:13 10° S 10:11:32 75° E 10:17:53 10° N visible
27 Jan 5.3 11:53:40 10° WSW 11:57:44 17° WNW 12:01:48 10° NNW visible
28 Jan 6.2 08:49:18 10° SE 08:53:45 20° E 08:58:13 10° NE visible
28 Jan 4.0 10:32:24 10° SSW 10:38:39 61° W 10:44:58 10° N visible
29 Jan 5.2 09:17:45 26° SE 09:20:29 38° E 09:26:15 10° NNE visible
29 Jan 4.6 11:02:50 22° WSW 11:05:59 33° WNW 11:11:40 10° N visible
30 Jan 4.2 09:47:20 70° E 09:47:24 70° E 09:53:44 10° NNE visible
30 Jan 5.2 11:32:15 18° W 11:33:31 19° WNW 11:37:49 10° NNW visible
31 Jan 6.3 08:30:47 18° ENE 08:30:47 18° ENE 08:33:55 10° NE visible
31 Jan 4.2 10:15:38 55° NNW 10:15:38 55° NNW 10:20:50 10° N visible
01 Feb 5.7 08:58:41 27° NE 08:58:41 27° NE 09:02:03 10° NNE visible
01 Feb 4.8 10:43:31 31° NW 10:43:31 31° NW 10:47:36 10° N visible
02 Feb 5.3 09:26:20 32° NNE 09:26:20 32° NNE 09:29:34 10° NNE visible
02 Feb 5.4 11:11:09 18° NW 11:11:09 18° NW 11:13:48 10° NNW visible
